{"data":{"norad_id":38041,"intl_designator":"2011-080B","name":"GLOBALSTAR M080","alt_names":[],"object_type":"PAYLOAD","status":"ACTIVE","operator":null,"country":"GLOB","launch_date":"2011-12-28","launch_site_code":"TYMSC","launch_vehicle":null,"mission":null,"orbit_class":"UNKNOWN","rcs_meters":4.5491,"size_class":null,"mass_kg":null,"dimensions":null,"purposes":["comms"],"wikipedia_slug":null,"has_3d_model":false,"image_url":null,"decayed_at":null,"tle_current":{"epoch":"2026-09-19T23:12:21.174336Z","epoch_age_seconds":60795,"freshness":"FRESH","line1":"1 38041U 11080B   26262.96691174 -.00000113  00000+0 -53197-4 0  9992","line2":"2 38041  52.0051  90.4923 0001164  93.6638  70.6083 12.62268507680855","mean_motion":12.62268507,"eccentricity":0.0001164,"inclination_deg":52.0051,"raan_deg":90.4923,"arg_perigee_deg":93.6638,"mean_anomaly_deg":70.6083,"bstar":-5.3197e-5,"rev_number":68085,"period_min":114.08032379913,"perigee_km":1412.6881082294,"apogee_km":1414.5020234543,"semimajor_km":7791.7320658419,"source":"CELESTRAK","updated_at":"2026-09-20T09:00:45.039751Z"}}}